Location: Quesnel
(52.9830°N, 122.4830°W)
Time: 21:55:37
(UTC-07:00)

ISS - All Passes

Search period start: 23 July 2016 00:00
Search period end: 02 August 2016 00:00
Orbit: 401 x 404 km, 51.6° (Epoch: 23 July)

Date Brightness Start Highest point End Pass type
(mag) Time Alt. Az. Time Alt. Az. Time Alt. Az.
23 Jul - 01:08:25 10° SW 01:11:30 40° SSE 01:14:37 10° E visible
23 Jul - 02:44:30 10° W 02:47:45 71° S 02:51:00 10° E visible
23 Jul - 04:20:54 10° W 04:24:02 45° SSW 04:27:10 10° SE visible
23 Jul - 05:58:03 10° WSW 05:59:54 14° SW 06:01:44 10° S daylight
24 Jul - 00:15:49 10° SW 00:18:43 29° SSE 00:21:37 10° E visible
24 Jul - 01:51:37 10° WSW 01:54:52 66° S 01:58:07 10° E visible
24 Jul - 03:27:59 10° W 03:31:11 57° SSW 03:34:24 10° ESE visible
24 Jul - 05:04:40 10° W 05:07:13 21° SSW 05:09:45 10° SSE daylight
24 Jul - 23:23:27 10° SSW 23:25:59 21° SSE 23:28:29 10° E visible
25 Jul - 00:58:47 10° WSW 01:01:59 56° SSE 01:05:12 10° E visible
25 Jul - 02:35:04 10° W 02:38:18 67° S 02:41:34 10° ESE visible
25 Jul - 04:11:33 10° W 04:14:28 30° SSW 04:17:22 10° SE visible
25 Jul - 22:31:31 10° S 22:33:17 14° SE 22:35:04 10° ESE visible
26 Jul - 00:06:01 10° SW 00:09:09 44° SSE 00:12:16 10° E visible
26 Jul - 01:42:09 10° W 01:45:25 71° S 01:48:40 10° E visible
26 Jul - 03:18:34 10° W 03:21:40 41° SSW 03:24:46 10° SE visible
26 Jul - 04:55:59 10° WSW 04:57:29 13° SW 04:59:00 10° S daylight
26 Jul - 23:13:22 10° SW 23:16:20 32° SSE 23:19:18 10° E visible
27 Jul - 00:49:16 10° WSW 00:52:31 68° S 00:55:46 10° E visible
27 Jul - 02:25:37 10° W 02:28:50 54° SSW 02:32:01 10° ESE visible
27 Jul - 04:02:24 10° W 04:04:49 19° SSW 04:07:13 10° SSE visible
27 Jul - 22:20:55 10° SSW 22:23:34 23° SSE 22:26:13 10° E visible
27 Jul - 23:56:24 10° WSW 23:59:38 60° SSE 00:02:51 10° E visible
28 Jul - 01:32:42 10° W 01:35:57 65° S 01:39:11 10° ESE visible
28 Jul - 03:09:14 10° W 03:12:05 27° SSW 03:14:54 10° SSE visible
28 Jul - 21:28:49 10° S 21:30:51 16° SE 21:32:54 10° ESE daylight
28 Jul - 23:03:36 10° WSW 23:06:46 47° SSE 23:09:55 10° E visible
29 Jul - 00:39:47 10° W 00:43:03 70° S 00:46:18 10° E visible
29 Jul - 02:16:13 10° W 02:19:17 38° SSW 02:22:21 10° SE visible
29 Jul - 03:54:01 10° WSW 03:55:02 11° SW 03:56:04 10° SSW night (unlit)
29 Jul - 22:10:55 10° SW 22:13:56 35° SSE 22:16:57 10° E visible
29 Jul - 23:46:53 10° W 23:50:09 70° S 23:53:24 10° E visible
30 Jul - 01:23:15 10° W 01:26:27 50° SSW 01:29:37 10° ESE visible
30 Jul - 03:00:10 10° WSW 03:02:23 17° SW 03:04:36 10° S night (unlit)
30 Jul - 21:18:24 10° SSW 21:21:09 25° SSE 21:23:55 10° E daylight
30 Jul - 22:54:01 10° WSW 22:57:14 62° S 23:00:29 10° E visible
31 Jul - 00:30:20 10° W 00:33:34 62° S 00:36:48 10° ESE visible
31 Jul - 02:06:55 10° W 02:09:40 25° SSW 02:12:23 10° SSE visible
31 Jul - 20:26:10 10° S 20:28:25 17° SE 20:30:40 10° ESE daylight
31 Jul - 22:01:11 10° WSW 22:04:22 51° SSE 22:07:33 10° E visible
31 Jul - 23:37:25 10° W 23:40:40 69° S 23:43:55 10° E visible
01 Aug - 01:13:52 10° W 01:16:53 35° SSW 01:19:53 10° SE visible
01 Aug - 19:34:37 10° SSE 19:35:45 11° SE 19:36:53 10° ESE daylight
01 Aug - 21:08:27 10° SW 21:11:31 39° SSE 21:14:36 10° E daylight
01 Aug - 22:44:30 10° W 22:47:46 71° S 22:51:00 10° E visible
